Location: Fernhill
(41.0167°S, 175.6333°E)
Time: 23:07:49
(UTC+00:00)

Cosmos 1536 Rocket - Pass Details

Date: 08 November 2025
Orbit: 599 x 625 km, 82.5° (Epoch: 04 December)

Event Time Altitude Azimuth Distance (km) Brightness Sun altitude
Exits shadow 08:35:01 16° 7° (N) 1,624 5.3 -15.1°
Maximum altitude 08:38:27 64° 85° (E) 687 3.5 -15.6°
Drops below altitude 10° 08:42:49 10° 166° (SSE) 1,987 6.5 -16.3°
Sets 08:45:03 0° 168° (SSE) 2,896 7.4 -16.6°
